CAPE
11 6 6 9 6 6 8 3 2 4 4 5 0 2 0 1 13 0 1 0 0 0 0 0 0 0 0 0 0 0 0 0 0 2 1 0 0 0 0 0 0 0 0 0 0 0 0 0 0 2 6 0 0 0
16 11 9 11 4 3 8 9 4 6 7 7 2 1 2 8 21 4 1 0 0 3 0 0 0 0 0 0 0 0 0 0 0 1 0 0 0 0 0 4 0 0 0 0 2 0 0 0 0 0 0 0 0 0
16 16 14 7 17 3 3 4 2 6 7 16 8 2 2 12 23 7 1 0 1 20 0 0 0 0 0 0 0 0 0 0 0 0 2 5 4 0 3 0 0 0 0 1 1 0 0 0 0 0 0 0 0 0
10 12 12 14 18 9 10 11 11 10 9 12 9 7 1 6 26 20 2 0 6 5 0 0 0 0 0 0 0 0 0 0 0 1 27 27 14 0 1 0 0 0 1 0 0 0 0 0 0 0 0 0 0 0
16 26 25 16 26 19 9 12 14 10 13 11 9 6 1 16 32 1 0 0 0 1 0 0 0 0 0 0 0 0 0 0 0 10 6 3 13 14 4 2 3 0 0 1 2 0 9 3 4 0 0 0 0 0
9 15 21 24 25 31 24 22 16 10 14 9 4 10 6 36 3 0 0 0 0 19 1 0 0 0 0 0 0 0 0 0 0 0 0 0 0 37 37 4 0 0 0 8 9 7 9 1 0 0 0 0 0 0
9 11 15 22 32 37 25 24 27 16 24 13 22 13 25 37 0 0 0 0 0 0 0 1 0 0 0 0 0 0 0 0 0 0 10 2 4 15 21 8 0 0 0 0 0 13 2 0 0 0 0 0 0 0
35 13 14 17 25 29 38 28 29 24 32 9 14 20 29 30 18 6 0 0 3 11 10 3 0 0 0 0 0 0 0 0 0 5 5 11 9 21 4 0 0 1 0 0 0 1 21 14 2 1 0 0 0 0
51 46 18 16 19 27 45 30 28 27 14 24 12 11 0 0 3 2 12 31 8 0 0 0 0 0 0 0 0 0 0 1 0 5 8 13 13 12 0 0 0 4 8 18 13 14 10 6 0 0 0 0 1 0
52 50 33 14 16 28 29 52 55 40 33 26 3 0 0 0 0 0 0 5 17 23 3 11 0 0 0 0 0 0 0 2 4 0 0 17 4 0 0 0 30 20 5 1 0 0 0 0 0 1 0 0 2 5
54 25 40 9 13 18 36 60 65 48 37 1 0 0 0 0 0 0 0 6 4 13 1 1 0 0 0 0 0 0 0 1 6 0 0 0 0 0 0 4 0 0 0 0 0 4 3 2 1 0 0 0 0 12
31 49 40 47 12 16 26 64 45 23 2 0 0 0 0 0 0 0 0 0 11 0 0 0 0 0 0 0 1 4 0 0 0 0 1 1 0 0 0 0 0 0 0 0 0 0 0 0 0 0 0 2 14 1
65 62 65 63 21 17 26 58 54 11 0 0 0 0 0 0 4 6 0 1 0 0 0 0 1 0 2 4 8 1 0 0 0 0 0 0 0 0 0 0 0 0 0 0 0 0 0 0 0 0 23 2 1 2
77 56 49 87 46 13 28 37 31 23 0 0 3 0 1 0 0 0 0 0 0 0 0 0 1 0 0 3 0 4 0 0 0 0 0 0 0 0 0 0 0 0 0 0 0 1 10 17 11 2 4 12 16 10
65 73 83 75 56 8 23 31 41 2 0 0 0 0 0 0 0 0 0 0 0 0 0 0 0 0 0 0 0 0 0 1 0 0 0 0 0 0 0 0 0 0 5 6 13 13 4 1 4 10 6 10 11 5
85 101 66 70 41 13 19 47 33 0 3 0 0 1 0 0 0 0 0 0 0 0 0 0 0 0 0 1 0 0 0 0 0 0 0 0 0 0 0 0 9 4 14 2 11 1 2 3 7 6 6 3 2 3
118 33 42 25 23 11 16 15 1 5 0 0 1 0 0 0 0 0 0 0 0 0 0 0 0 0 0 0 0 0 0 0 0 0 0 0 0 0 0 11 8 7 6 4 0 1 10 21 5 6 3 1 0 2
20 4 68 43 19 4 10 5 1 1 0 1 1 0 0 0 0 0 0 0 0 0 0 0 0 0 0 0 0 0 0 0 0 0 0 0 0 0 6 4 3 3 3 1 0 2 5 4 4 2 0 1 1 0
7 13 57 11 0 3 1 7 4 0 1 0 0 0 0 0 0 0 0 0 0 0 0 0 0 1 0 0 0 0 0 0 0 0 0 0 0 4 1 2 2 3 2 2 6 2 5 4 3 5 4 5 5 6
85 68 53 4 0 1 1 3 0 0 1 0 0 0 0 0 0 0 0 0 0 0 1 1 0 0 0 0 0 0 0 0 0 0 0 0 0 7 1 1 1 1 1 1 2 24 8 6 6 4 8 10 2 3
83 69 58 1 0 1 1 1 3 0 0 0 0 0 0 0 0 0 0 0 0 1 0 0 0 0 0 0 0 0 0 0 0 0 1 1 0 12 0 0 3 1 2 1 5 8 13 11 6 0 0 0 0 0
0 71 0 1 0 1 1 2 0 0 0 0 0 0 0 0 0 0 0 0 0 0 0 0 0 0 0 0 0 0 0 0 0 0 3 1 8 3 1 2 6 4 3 9 14 10 15 20 12 0 0 0 0 0
0 0 1 0 0 0 1 0 0 0 0 0 0 0 0 0 0 0 0 0 0 0 0 0 0 0 0 0 0 0 0 0 0 0 1 0 5 5 4 6 6 10 1 4 14 14 12 15 19 3 0 0 0 0
0 0 0 0 0 0 3 1 0 0 0 0 0 0 0 0 0 1 0 0 0 0 0 0 0 0 0 0 0 0 0 0 1 0 0 10 7 2 7 14 11 15 19 15 3 1 2 6 4 0 0 0 0 0
0 0 0 0 1 0 0 1 0 0 1 0 0 0 0 0 0 0 0 0 0 0 0 0 0 0 0 0 0 0 0 1 0 0 1 11 5 1 2 14 11 16 8 8 2 0 0 0 0 0 0 0 0 0
0 0 0 0 0 0 0 0 0 0 0 0 0 0 1 0 0 0 0 0 0 0 0 0 0 0 0 0 0 0 0 1 10 1 1 9 2 3 2 1 1 1 3 6 0 0 0 0 0 0 0 0 0 0
0 0 0 0 0 0 0 0 0 0 0 0 0 2 0 0 0 0 0 0 0 0 0 0 0 0 0 0 0 0 0 0 4 0 3 5 3 1 2 1 5 3 2 0 0 0 0 0 0 0 0 0 0 0
0 0 0 0 0 0 0 0 0 0 0 0 0 1 0 0 0 0 0 0 0 0 0 0 0 0 0 0 0 0 0 0 1 5 3 2 1 0 0 0 0 3 0 0 0 0 0 0 0 0 0 0 0 0
0 0 0 0 0 0 0 0 0 0 0 0 0 0 0 0 0 0 0 0 0 0 0 0 1 0 0 0 0 0 0 0 1 2 1 0 0 0 0 0 0 0 0 0 0 0 0 0 0 0 0 0 0 0
0 0 0 0 0 0 0 0 0 0 0 0 0 0 0 0 0 0 0 0 0 0 0 0 0 1 1 0 1 0 0 0 0 0 0 0 0 0 0 0 0 0 0 0 0 0 0 0 0 0 0 0 0 0
0 0 0 0 0 1 0 0 0 0 0 0 0 0 0 0 0 0 0 0 0 1 2 0 0 0 1 0 0 0 0 0 0 0 0 0 0 0 0 0 0 0 0 0 0 0 0 0 0 0 0 0 0 0
0 0 0 0 1 0 0 0 0 0 0 0 0 0 0 0 0 0 0 0 1 3 2 0 0 0 0 0 0 0 0 0 0 0 0 0 0 0 0 0 0 0 0 0 0 0 0 0 0 0 0 0 0 0
0 0 0 0 0 0 0 0 0 1 0 0 0 0 0 0 0 0 0 0 0 0 0 0 0 0 0 0 0 0 0 0 0 0 0 0 0 1 0 0 0 0 0 1 1 0 0 0 0 0 0 0 0 0
CIN
0 0 0 0 0 0 0 0 -1 0 0 0 0 -1 0 0 -5 0 -12 0 0 0 0 0 0 0 0 0 0 0 0 0 0 -2 -1 0 0 0 0 0 0 0 0 0 0 0 0 0 0 -1 -1 0 0 0
-1 0 -1 -1 0 0 0 0 0 0 0 -1 -1 -2 -1 0 -1 -21 -16 0 0 -1 0 0 0 0 0 0 0 0 0 0 0 0 0 0 0 0 0 0 0 -1 -1 0 -21 0 0 0 0 0 0 -1 0 -1
-1 -1 0 0 -1 0 0 0 0 0 0 -1 -2 -2 0 0 -1 -7 -8 0 -6 0 0 0 0 0 0 0 0 0 0 0 0 0 -8 -2 -4 0 -3 0 0 0 0 0 0 0 0 0 0 0 0 -14 0 0
-1 0 0 0 0 0 0 0 0 0 0 0 -1 -1 0 0 -1 -5 -5 0 -12 -13 0 0 0 0 0 0 0 0 0 0 0 -2 0 0 -1 -1 -3 0 0 0 -1 0 0 0 0 0 0 0 0 0 0 0
0 0 0 0 0 0 0 0 0 0 0 0 0 -1 0 0 -1 0 0 0 0 -1 0 0 0 0 0 0 0 0 0 0 0 0 0 0 -4 -1 -2 -1 0 -1 0 -1 0 0 -2 0 0 0 -1 0 0 0
0 0 0 0 0 0 0 0 0 0 0 0 0 0 0 -1 -2 0 0 0 0 -3 0 0 0 0 0 0 0 0 0 0 0 -1 0 -4 0 -3 0 0 0 0 0 -32 0 -1 0 0 0 0 0 0 0 0
0 0 0 0 0 0 0 0 0 -1 0 0 0 -1 -1 -2 0 0 0 0 0 0 0 0 -1 0 0 0 0 0 0 0 0 0 0 -6 -4 -4 0 -1 0 0 0 0 -1 -1 -1 0 0 0 0 0 0 0
0 0 0 0 0 0 0 0 -1 -1 0 0 0 -1 -2 -3 -4 -2 0 0 -41 -13 -7 -1 0 0 0 0 0 0 0 0 0 -1 -7 -1 -1 -3 -4 0 0 0 0 0 0 -2 0 0 0 -2 0 0 0 0
0 0 0 0 0 0 0 0 0 0 0 0 -1 -9 0 0 -4 -3 -11 -12 -22 -2 -4 0 0 0 0 0 0 0 0 0 0 0 -2 -9 -1 -1 0 0 0 0 0 0 0 -1 -1 0 0 0 0 0 0 0
0 0 0 0 0 0 0 0 0 0 -1 -3 -4 0 0 -4 0 0 0 0 -1 0 -4 0 0 0 0 0 0 0 0 -8 -3 0 0 0 -3 0 0 0 0 -4 0 0 0 0 0 0 0 0 0 0 0 0
0 0 0 -1 0 0 0 0 0 -2 -7 -15 0 0 0 0 0 0 0 -1 0 0 0 0 0 -1 0 0 0 0 -2 -2 0 0 0 0 0 0 -2 -3 0 0 0 0 0 -1 -1 0 0 0 0 0 0 0
-1 0 -1 0 0 0 0 0 -1 -7 -5 0 0 0 0 0 0 0 0 0 0 0 0 0 0 0 0 0 0 0 0 0 0 0 -4 -1 0 -1 0 0 0 0 0 0 0 0 0 0 0 0 0 0 0 -2
0 0 -1 0 -3 0 0 0 0 -20 0 0 0 0 0 0 0 0 0 0 0 0 0 0 0 0 0 0 0 0 0 0 0 0 0 0 0 0 0 0 0 0 0 0 0 0 0 0 0 -3 0 -3 0 -1
0 0 -1 -1 0 -1 0 0 -2 -10 0 0 -6 -1 0 0 0 0 0 0 0 0 0 0 0 0 -1 0 -1 0 0 0 0 0 0 0 0 0 0 0 0 0 -2 0 0 -1 0 0 0 0 -1 0 0 0
0 -2 -1 -2 0 0 -2 0 0 -10 0 0 0 0 0 0 0 0 0 0 0 0 0 0 0 0 0 0 0 0 0 -1 0 0 0 0 0 0 0 0 0 0 -1 -3 0 0 0 0 0 0 0 0 0 0
0 -1 0 -1 -2 -1 0 0 -1 -2 -2 0 0 0 0 0 0 0 0 0 0 0 0 0 0 0 0 0 0 0 0 0 0 0 0 0 0 -1 0 -1 0 -1 0 0 0 0 0 0 0 0 0 0 0 0
0 -2 -3 0 -2 -4 0 -2 0 0 0 0 0 0 0 0 0 0 0 0 0 0 0 0 0 0 0 0 0 0 0 0 0 0 0 0 0 0 -1 -1 0 0 0 0 0 0 0 0 0 0 0 0 0 0
-1 -5 -2 0 -2 0 -1 -1 0 0 0 0 0 0 0 0 0 0 0 0 0 0 0 0 0 0 0 0 0 0 0 0 0 0 0 0 0 0 -1 0 0 0 0 0 0 0 0 0 0 0 0 0 0 0
-2 -6 0 -2 0 -1 0 0 0 0 0 0 0 0 0 0 0 0 0 0 0 0 0 0 0 0 0 0 0 0 0 0 0 0 0 0 0 -3 -2 -1 -1 0 0 0 0 0 0 0 0 0 0 0 0 0
-1 -2 0 0 0 0 0 0 -1 0 0 0 0 0 0 0 0 0 0 0 0 0 0 0 0 0 0 0 0 0 0 0 0 0 0 -2 0 -1 -1 -1 0 0 0 0 0 0 0 0 0 0 0 0 0 0
0 -2 0 0 0 0 0 0 0 0 0 0 0 0 0 0 0 0 0 0 0 0 0 0 0 0 0 0 0 0 0 0 0 0 0 0 0 0 -2 0 0 0 0 0 0 0 0 0 0 0 0 0 0 0
0 -13 0 0 0 0 0 0 0 0 0 0 0 0 0 0 0 0 0 0 0 -1 0 0 0 0 0 0 0 0 0 0 0 0 0 -1 0 -1 0 0 0 0 -1 0 0 0 0 0 0 0 0 0 0 0
0 0 0 0 0 0 0 0 0 0 0 0 0 0 0 0 0 0 0 0 -1 0 0 0 0 0 0 0 0 0 0 0 -3 0 -3 -1 -1 0 0 0 0 0 -1 0 0 0 0 0 0 0 0 0 0 0
0 0 0 0 0 0 0 0 0 0 0 0 0 0 0 0 0 0 0 0 0 0 0 0 0 0 0 0 0 0 0 0 -5 0 0 0 0 0 0 -1 0 0 0 0 0 0 0 0 0 0 0 0 0 0
0 0 0 0 0 0 0 0 0 0 0 0 0 0 0 0 0 0 0 0 0 0 0 0 0 0 0 0 0 0 0 -2 -1 0 0 0 0 0 0 0 0 0 0 0 0 0 0 0 0 0 0 0 0 0
0 0 0 0 0 0 0 0 0 0 0 0 0 0 0 0 0 0 0 0 0 0 0 0 0 0 0 0 0 0 0 0 0 0 0 -1 0 0 0 0 0 0 -1 0 0 0 0 0 0 0 0 0 0 0
0 0 0 0 0 0 0 0 0 0 0 0 0 0 0 0 0 0 0 0 0 0 0 0 0 0 0 0 0 0 0 0 0 0 0 -1 0 0 0 0 0 0 0 0 0 0 0 0 0 0 0 0 0 0
0 0 0 0 0 0 0 0 0 0 0 0 0 0 0 0 0 0 0 0 0 0 0 0 0 0 0 0 0 0 0 0 0 0 0 0 0 0 0 0 0 0 0 0 0 0 0 0 0 0 0 0 0 0
0 0 0 0 0 0 0 0 0 0 0 0 0 0 0 0 0 0 0 0 0 0 0 0 -1 -5 0 0 0 0 0 0 0 0 0 0 0 0 0 0 0 0 0 0 0 0 0 0 0 0 0 0 0 0
0 0 0 0 0 0 0 0 0 0 0 0 0 0 0 0 0 0 0 0 0 0 0 0 0 0 0 0 0 0 0 0 0 0 0 0 0 0 0 0 0 0 0 0 0 0 0 0 0 0 0 0 0 0
0 0 0 0 0 0 0 0 0 0 0 0 0 0 0 0 0 0 0 0 0 0 0 0 0 0 -1 0 0 0 0 0 0 0 -1 0 0 0 0 0 0 0 0 0 0 0 0 0 0 0 0 0 0 0
0 0 0 0 0 0 0 0 0 0 0 0 0 0 0 0 0 0 0 0 0 0 0 0 0 0 0 0 0 0 0 0 0 0 0 0 0 0 0 0 0 0 -4 0 0 0 0 0 0 0 0 0 0 0
0 0 0 0 0 0 0 0 0 0 0 0 0 0 0 0 0 0 0 0 0 0 0 0 0 0 0 0 0 0 0 0 0 0 0 0 0 -1 0 0 0 -4 -2 -2 0 0 0 0 0 0 0 0 0 0
Wind_Speed
17 16 15 15 13 12 10 9 8 6 5 5 4 5 5 5 4 3 0 2 3 2 4 5 5 4 2 3 4 2 2 1 2 2 2 3 4 4 3 4 4 7 4 4 3 4 10 3 7 7 12 23 19 20
19 18 17 16 16 15 13 10 9 7 6 6 4 3 4 5 3 3 1 1 2 1 5 6 8 9 10 9 4 4 3 3 4 3 3 3 4 4 6 10 3 6 8 6 8 10 7 14 19 17 13 17 20 18
20 20 19 17 18 17 15 13 11 10 8 6 4 3 5 5 5 3 2 3 1 2 5 1 7 7 4 11 12 5 2 6 4 5 3 4 9 3 5 7 7 4 4 7 6 21 17 16 18 19 13 16 19 19
22 22 21 20 19 17 16 14 13 12 10 8 6 5 6 6 7 3 2 3 1 2 2 7 1 3 5 7 11 15 3 2 3 2 3 4 6 6 4 7 12 12 10 13 17 20 17 10 9 16 18 17 17 19
24 23 21 19 20 19 18 16 14 13 11 8 7 6 6 7 6 1 2 3 3 3 3 5 6 2 2 7 10 11 11 5 2 3 5 5 5 7 5 7 15 6 10 6 7 14 13 16 13 17 18 19 16 19
26 25 25 23 21 19 19 17 15 14 13 9 8 8 6 8 3 3 4 2 3 3 1 4 4 3 1 4 6 7 8 4 4 4 4 5 4 3 5 6 5 3 4 11 10 7 12 16 20 13 16 20 20 19
26 27 25 25 23 22 19 17 15 16 13 9 8 7 8 7 3 3 5 4 5 3 1 5 5 4 2 2 2 2 3 4 4 4 5 4 5 6 5 13 8 3 5 7 5 8 14 10 17 18 16 22 24 21
27 28 27 27 25 23 21 19 16 14 14 10 8 7 7 3 3 5 4 9 6 2 2 4 5 5 1 1 1 1 1 2 4 4 2 3 2 4 6 4 2 4 8 10 10 12 14 17 20 21 17 19 24 22
26 28 28 28 26 24 22 21 18 15 12 10 4 3 2 2 3 2 3 11 2 3 3 3 3 5 2 1 1 2 0 3 2 4 3 2 3 7 7 5 4 4 8 13 17 18 19 20 19 22 21 22 20 22
27 28 29 28 27 26 24 22 18 15 13 9 4 3 2 2 9 8 3 3 4 4 4 5 4 3 3 1 3 2 1 2 3 4 3 5 7 7 4 4 4 7 14 16 19 22 24 24 22 21 22 20 19 21
29 28 28 28 28 26 25 22 20 16 10 3 4 3 2 3 2 1 3 4 4 5 5 3 9 4 3 3 3 2 2 2 3 3 1 4 4 3 3 5 9 15 17 17 16 17 18 20 21 23 24 24 22 20
25 28 28 29 28 28 26 23 25 11 5 8 6 5 3 3 1 3 5 3 6 7 3 5 4 4 1 1 3 3 3 2 6 1 3 5 2 2 9 16 17 16 16 18 17 19 20 20 20 21 21 21 18 23
25 27 26 30 30 30 27 27 24 17 12 4 4 4 4 4 7 10 10 6 5 5 6 5 3 4 3 2 2 2 3 6 1 1 5 4 2 8 15 15 16 16 17 18 20 18 20 21 21 20 17 20 21 20
26 26 29 29 30 31 29 30 28 20 5 3 7 7 9 8 9 9 7 5 5 4 8 5 4 4 3 3 3 4 4 1 3 4 6 2 3 13 12 13 16 19 20 20 21 18 19 17 17 19 18 16 17 17
27 23 27 30 33 34 33 32 33 9 4 6 6 10 12 6 3 2 3 2 2 6 7 4 4 3 2 2 4 2 2 5 6 6 3 3 9 9 13 15 17 19 17 14 17 11 16 16 15 15 16 15 16 15
25 20 22 32 35 34 35 30 17 4 3 3 6 5 2 3 4 4 4 4 4 4 4 3 4 4 5 4 4 7 5 8 5 3 2 5 7 11 13 16 14 16 16 15 13 13 13 14 13 13 14 14 15 15
24 12 19 31 35 35 36 11 5 6 8 8 7 6 4 2 4 5 5 5 5 5 4 4 7 9 3 3 5 6 7 4 2 3 2 6 9 11 12 13 14 14 13 13 13 11 10 9 11 11 13 15 14 15
16 11 24 33 28 21 11 6 6 9 8 5 5 5 6 3 4 3 4 4 6 5 5 6 5 4 7 7 5 4 3 2 2 3 4 6 7 10 8 12 12 12 11 11 11 9 9 10 10 8 11 12 11 13
14 10 30 41 22 8 5 6 5 6 4 4 3 4 4 3 2 4 5 6 2 3 7 3 5 6 5 5 4 3 3 3 3 3 3 5 6 8 9 9 9 10 9 9 8 7 6 8 7 7 7 8 8 8
21 19 36 36 23 5 5 2 3 3 5 5 4 5 4 4 4 4 5 5 5 4 5 7 7 4 4 4 4 3 3 3 3 2 4 3 5 8 7 7 6 9 6 6 5 9 6 6 7 7 7 8 8 10
17 15 37 24 5 4 4 5 4 5 5 3 4 6 4 3 3 4 5 7 7 5 6 6 4 4 3 3 3 3 4 4 4 4 4 5 5 6 6 5 6 5 4 5 4 5 7 5 6 6 6 6 6 5
4 21 5 5 4 3 3 3 5 4 4 4 6 3 3 4 4 5 5 7 6 8 6 4 4 5 5 5 5 6 5 5 5 4 7 6 5 5 5 4 5 4 3 4 4 4 4 4 5 6 6 6 7 6
13 6 4 3 5 4 5 4 5 3 6 5 3 4 2 3 3 4 4 5 5 4 6 6 5 5 7 6 5 4 6 5 3 3 3 3 4 5 5 3 3 3 4 3 3 3 3 7 6 6 6 6 5 5
11 5 5 5 4 5 6 4 3 5 4 4 5 5 5 3 3 3 5 4 4 3 5 7 6 5 3 5 4 4 4 3 3 3 1 2 4 4 3 1 1 2 2 2 3 3 3 3 6 5 5 5 5 5
7 3 5 4 3 6 6 6 5 4 5 4 5 4 4 3 4 4 5 3 4 5 5 5 5 4 5 4 3 3 4 3 3 2 2 2 4 3 1 1 2 2 3 3 4 4 4 4 4 4 5 5 5 6
5 4 5 5 4 5 5 6 5 5 4 4 3 4 3 4 4 7 4 3 3 5 8 10 8 5 2 3 5 4 4 3 3 2 2 1 2 1 1 1 1 1 3 3 4 4 4 4 5 6 5 6 9 7
6 3 2 1 4 6 6 4 3 4 5 6 5 6 5 5 7 5 1 2 3 3 5 6 7 6 4 5 3 3 3 3 2 2 3 2 1 1 1 0 1 2 3 4 4 4 5 5 4 4 5 4 4 5
3 4 10 6 4 3 6 5 5 6 6 5 8 7 9 8 5 1 1 1 2 3 5 4 4 4 4 4 4 3 2 2 1 4 4 3 3 2 2 2 2 7 3 4 5 4 5 6 5 5 5 5 5 4
3 5 5 6 5 4 3 5 5 3 4 6 7 5 4 1 2 2 1 2 2 5 6 6 4 4 4 4 3 2 2 2 4 7 9 4 2 2 1 2 2 2 2 3 9 8 7 5 5 4 5 5 4 4
2 2 5 3 4 2 1 1 3 3 2 3 4 3 2 1 1 1 4 5 5 4 5 5 4 6 6 6 5 3 1 1 2 3 3 4 4 2 2 2 2 2 2 2 3 5 9 5 5 4 5 5 5 5
3 3 4 4 3 2 2 2 3 3 3 3 3 3 2 1 1 2 3 3 3 4 5 5 4 5 6 7 6 6 4 3 4 4 3 2 3 2 3 2 2 2 3 3 3 3 4 5 5 6 7 8 8 8
3 2 4 4 4 2 1 2 2 3 2 2 2 2 2 2 2 2 4 5 6 5 7 6 5 5 3 3 3 2 3 5 4 4 4 2 2 3 3 2 2 2 2 3 4 4 5 6 6 7 7 9 9 9
3 4 4 5 3 3 1 3 3 3 2 2 2 2 3 2 4 1 1 1 4 5 5 4 4 4 5 5 5 4 6 4 5 4 4 4 3 2 1 1 1 2 3 4 3 4 6 7 7 8 9 9 10 11
Wind_Direction
249 251 249 252 254 260 264 270 278 287 295 309 328 348 2 6 142 95 57 168 111 149 262 195 191 166 170 186 202 228 12 340 79 206 222 258 229 239 279 258 252 256 265 255 244 249 275 198 317 334 287 296 299 297
241 244 244 243 250 252 254 256 265 269 280 284 285 299 314 316 337 152 201 163 126 255 238 200 211 208 209 189 161 207 201 165 201 182 226 248 261 239 255 278 190 249 202 235 201 236 258 274 299 296 290 294 301 300
233 235 240 239 243 244 248 251 254 255 257 258 240 261 289 304 309 150 211 149 156 247 291 175 224 245 213 213 200 181 230 202 215 181 184 238 251 187 242 243 258 250 221 254 296 266 263 287 293 294 297 296 297 293
226 226 231 237 236 240 240 241 244 249 252 247 251 264 280 297 302 178 227 191 203 294 259 275 311 217 190 165 190 212 193 123 118 114 226 238 258 202 233 264 260 273 291 248 257 275 294 273 288 294 303 299 299 295
227 225 226 229 234 231 236 234 234 245 245 240 244 251 271 289 301 90 193 220 191 187 258 274 298 227 111 168 193 210 221 202 159 220 216 239 240 250 233 253 263 226 248 240 273 292 285 286 302 294 296 294 298 304
224 222 221 220 223 226 230 232 228 236 239 231 233 253 263 289 124 58 339 280 213 186 253 290 275 276 316 163 184 197 205 194 191 205 226 232 221 205 251 251 266 174 246 257 283 314 312 291 276 283 291 296 299 302
226 223 219 219 220 218 217 223 224 226 232 228 236 240 262 266 123 171 190 226 156 88 258 296 288 282 212 197 192 164 152 196 177 226 227 221 226 220 239 260 294 350 319 310 249 302 308 299 294 293 297 300 295 294
227 222 217 217 215 214 214 210 216 222 222 222 225 249 269 250 190 260 208 156 149 152 239 264 266 331 338 242 276 142 199 189 212 243 267 240 243 226 251 248 327 347 312 280 292 293 283 289 294 291 295 300 296 293
226 225 218 213 213 211 209 208 208 199 203 218 216 116 83 140 185 203 89 175 164 164 208 220 200 254 8 334 295 322 206 253 262 238 241 220 238 236 238 204 216 286 301 301 305 299 301 294 301 299 302 302 296 294
228 226 218 211 208 205 203 202 195 183 189 147 118 125 243 225 133 114 44 128 218 208 218 233 165 239 122 27 292 11 304 253 266 247 328 241 252 243 231 229 276 302 313 313 311 313 314 309 306 302 300 299 295 294
237 223 218 208 203 200 197 194 179 167 132 116 162 188 104 103 38 248 198 199 180 235 222 211 193 185 184 170 221 186 274 264 272 278 237 266 275 314 32 344 311 310 317 313 306 299 295 293 296 301 302 300 299 303
241 218 213 211 199 192 187 191 170 155 173 160 140 101 107 131 210 218 219 209 205 234 215 176 177 179 166 160 184 190 224 252 251 326 256 258 249 354 342 329 320 317 316 312 308 302 303 301 299 297 295 299 303 299
240 235 214 207 192 185 184 180 172 139 124 107 97 117 162 177 209 210 200 205 205 206 168 154 140 127 158 219 227 176 216 226 38 235 241 235 230 336 333 321 318 315 308 306 310 308 308 303 303 306 309 299 299 297
235 234 207 200 190 181 182 169 154 148 105 145 149 182 214 194 224 202 203 179 198 161 137 135 117 156 143 174 208 224 221 97 251 231 237 247 322 317 317 317 311 314 317 314 310 309 307 313 319 311 309 311 313 311
233 229 222 198 189 179 174 167 159 152 148 171 157 210 219 208 202 196 151 121 205 142 123 103 75 114 130 209 204 211 242 239 219 230 230 279 319 317 316 315 315 323 317 319 321 312 314 315 315 318 324 325 328 324
230 232 222 199 186 178 166 160 160 143 157 187 231 209 178 140 193 174 169 178 178 127 88 82 131 151 193 210 198 212 191 219 237 199 293 308 310 316 314 316 317 322 326 323 324 318 321 332 334 330 332 341 339 340
222 227 206 183 174 169 161 149 149 149 185 200 223 187 163 146 175 171 152 185 153 128 161 142 162 201 106 213 227 194 214 203 179 271 263 267 304 312 314 313 321 325 330 328 332 338 340 338 335 339 343 344 344 355
218 227 201 174 166 155 164 165 152 185 193 211 174 167 181 171 145 154 169 155 151 176 141 197 131 184 201 207 228 219 199 188 203 225 240 272 298 305 313 316 320 326 330 331 340 341 344 349 349 344 338 342 356 3
211 202 183 160 151 116 133 173 175 181 188 141 144 124 136 175 217 141 159 166 149 144 125 135 206 208 208 210 201 187 164 175 225 263 244 278 287 305 308 314 317 324 331 335 336 354 349 349 344 344 344 347 358 3
209 199 175 153 134 112 138 164 127 133 175 167 134 152 156 187 164 153 137 154 155 168 190 208 212 201 187 209 190 157 160 176 173 281 281 302 308 299 312 315 314 319 323 330 331 347 351 1 356 350 351 4 8 4
194 197 171 154 91 91 120 141 170 158 138 170 147 140 158 134 148 164 169 167 201 208 223 209 173 210 200 155 149 149 181 185 192 198 270 298 304 291 303 302 309 314 327 334 334 341 1 352 342 338 347 349 356 4
193 151 98 46 113 120 107 155 124 134 100 135 135 134 141 165 178 179 138 201 225 225 216 176 188 166 178 182 185 187 196 200 218 241 269 288 284 291 299 305 311 315 320 339 343 341 342 339 353 352 352 347 355 351
100 74 88 118 110 104 105 156 108 152 128 158 114 117 177 191 184 134 208 217 238 197 191 196 169 164 177 155 156 190 206 200 208 234 263 268 265 269 276 279 309 312 328 332 337 338 349 350 346 345 325 336 344 350
102 103 139 137 133 118 149 149 127 111 107 161 158 168 184 158 138 196 242 231 218 156 172 173 145 125 111 145 174 190 188 167 204 238 198 259 273 279 298 289 313 340 343 326 336 347 346 348 346 332 336 342 349 349
106 143 110 118 132 126 133 133 129 124 138 159 153 160 155 136 190 227 231 216 187 195 171 153 161 155 150 161 170 175 161 176 200 202 158 245 272 269 303 135 89 35 354 351 347 355 343 328 326 334 330 340 346 349
109 180 141 142 164 124 135 127 144 138 117 134 168 103 143 174 196 240 234 212 182 174 175 177 168 155 153 155 162 167 174 181 191 191 156 225 269 294 7 23 322 331 0 343 334 319 328 340 336 333 332 335 340 343
123 152 152 9 120 119 95 74 99 119 141 151 158 166 169 189 224 242 192 194 169 194 157 156 157 156 154 161 139 141 157 187 213 142 133 143 98 37 8 274 308 325 338 322 317 310 307 308 308 308 310 311 313 321
110 161 139 163 104 76 111 122 149 172 170 160 138 182 185 198 230 178 167 82 127 129 119 112 122 129 133 141 136 145 169 147 157 158 165 162 151 114 30 350 330 331 337 322 320 314 310 308 307 313 316 315 313 311
100 128 112 90 91 92 132 152 177 177 143 149 160 168 198 137 99 125 137 121 94 97 126 155 162 137 116 104 113 138 138 161 194 201 216 209 166 224 302 304 300 305 314 315 325 333 320 318 330 324 319 314 306 303
114 25 88 72 81 89 76 33 115 115 54 92 102 103 101 106 96 120 128 137 156 181 192 187 164 171 171 170 161 138 127 217 222 184 177 188 204 212 281 282 303 312 311 311 308 310 330 339 332 329 328 324 323 325
100 79 73 63 79 43 65 97 81 84 74 72 35 82 81 115 150 179 190 173 157 161 156 168 188 200 184 177 168 165 175 201 201 189 191 181 199 224 250 247 271 303 304 303 299 301 309 319 316 319 323 326 326 329
63 82 118 111 106 126 332 50 62 69 60 74 77 82 87 66 276 213 187 148 169 180 201 182 181 197 180 133 134 130 133 142 170 184 201 190 214 224 231 226 269 273 298 310 304 300 312 316 312 315 317 317 319 320
102 82 88 105 111 125 117 90 70 80 66 103 126 154 169 188 244 203 114 171 174 177 183 175 156 139 152 151 156 159 160 152 174 194 216 243 236 294 95 263 292 310 316 312 302 317 320 318 316 317 316 315 315 316